Location: Champseau
(45.8333°N, 1.7667°E)
Time: 21:13:16
(UTC+00:00)

Daily predictions for brighter satellites

Satellite Brightness Start Highest point End
(mag) Time Altitude Azimuth Time Altitude Azimuth Time Altitude Azimuth
H-2A R/B 3.8 19:10:02 10° SSW 19:14:35 34° W 19:19:05 10° NNW
Cosmos 2219 Rocket 2.7 19:09:31 10° NNW 19:15:00 46° ENE 19:20:27 10° SE
SL-16 R/B 3.9 19:09:57 10° NW 19:15:03 35° WSW 19:20:08 10° S
Cosmos 44 4.3 19:11:01 10° SSE 19:15:12 27° ESE 19:19:35 10° NE
ERS-2 2.0 19:12:06 10° NNE 19:15:45 75° ESE 19:19:22 10° S
Resurs 01 Rocket 3.2 19:13:37 10° ESE 19:16:43 19° ENE 19:19:50 10° NNE
Cosmos 1455 3.1 19:15:42 10° SSE 19:18:55 27° E 19:22:07 10° NNE
Cosmos 1825 Rocket 3.6 19:15:20 10° N 19:19:45 86° E 19:24:08 10° S
SAR-Lupe-4 3.7 19:17:24 10° NNE 19:21:01 82° WNW 19:24:36 10° SSW
ATLAS 5 CENTAUR R/B 3.6 19:18:16 10° W 19:21:52 29° NW 19:25:55 10° NNE
Resurs 1-3 4.3 19:23:57 10° SE 19:27:58 36° ENE 19:31:59 10° N
Cosmos 1758 Rocket 4.5 19:24:05 10° NNW 19:28:26 54° W 19:32:48 10° S
Lacrosse 5 rocket 3.3 19:26:06 10° W 19:29:40 29° NNW 19:33:24 10° NE
Cosmos 2034 Rocket 4.1 19:24:24 10° S 19:30:37 90° E 19:36:56 10° N
ATLAS 5 CENTAUR R/B 0.6 19:29:35 10° NW 19:31:26 53° NE 19:33:14 13° ESE
Abrixas rocket 3.2 19:31:55 10° S 19:32:30 12° SSE 19:32:30 12° SSE
Nadezhda 4 Rocket 4.2 19:26:47 10° N 19:33:08 83° W 19:39:22 10° S
Cosmos 405 Rocket 4.2 19:31:36 10° NNE 19:34:49 22° ENE 19:37:21 13° ESE
In-Cosmos 22 Rocket 4.4 19:32:33 10° NNW 19:38:25 83° W 19:44:14 10° S
Cosmos 2237 Rocket 3.4 19:36:48 10° N 19:41:33 27° NE 19:45:35 13° ESE
SJ-6B 2.6 19:37:51 10° SSE 19:41:34 88° ENE 19:45:20 10° NNW
BREEZE-M DEB (TANK) 3.6 19:37:22 10° WSW 19:42:34 83° S 19:47:35 10° E
Meteor 2-10 Rocket 3.6 19:37:24 10° S 19:42:37 85° E 19:48:06 10° NNE
Exosat Rocket 4.1 19:36:02 10° NNW 19:42:38 54° ENE 19:47:11 13° SE
BREEZE-M DEB (TANK) 3.6 19:41:18 10° WSW 19:44:15 88° NNW 19:51:39 10° ENE
SL-8 R/B 3.7 19:40:05 10° WNW 19:44:56 84° NNE 19:48:58 15° ESE
MOS 1 4.3 19:39:57 10° SSE 19:45:32 71° ENE 19:51:11 10° N
Cosmos 405 2.8 19:45:22 10° S 19:48:49 85° E 19:52:18 10° NNE
Cosmos 2026 Rocket 4.0 19:43:30 10° N 19:49:33 65° E 19:55:37 10° SSE
OBJECT-B 1.0 19:46:47 10° S 19:49:59 72° WSW 19:53:14 10° NNW
IRS-1A Rocket 4.3 19:44:52 10° SSE 19:50:25 78° ENE 19:56:07 10° NNW
BREEZE-M DEB (TANK) 4.0 19:49:44 10° WSW 19:53:44 74° NNW 20:08:33 10° ENE
NOSS 3-4 (A) 4.1 19:48:28 10° WSW 19:54:13 57° NW 20:00:29 10° NE
NOSS 3-4 (C) 4.1 19:48:34 10° SW 19:54:20 57° NW 20:00:35 10° NE
Cosmos 1892 3.4 19:52:23 10° NNW 19:56:05 54° W 19:59:46 10° S
Cosmos 2227 Rocket 3.6 19:57:04 16° ESE 19:57:38 16° E 20:00:59 10° ENE
Cosmos 1627 Rocket 4.4 19:53:31 10° N 19:59:41 81° E 20:05:53 10° S
Cosmos 2098 Rocket 4.5 19:53:33 10° N 20:00:38 82° W 20:08:03 10° S
Cosmos 2251 Rocket 3.6 19:55:59 10° S 20:01:13 58° ESE 20:06:28 10° NNE
Cosmos 389 Rocket 3.4 20:00:14 22° SE 20:01:28 28° E 20:04:33 10° NNE
Cosmos 2297 Rocket 3.2 20:02:12 17° SE 20:04:49 24° ESE 20:09:14 10° NE
Cosmos 2333 Rocket 2.5 19:59:41 10° NNW 20:05:25 68° WSW 20:10:56 11° SSE
Cosmos 1634 Rocket 4.0 19:59:41 10° S 20:05:57 79° E 20:12:13 10° N
BREEZE-M DEB (TANK) 2.5 20:04:48 10° WNW 20:07:10 41° N 20:08:17 23° ENE
Cosmos 2219 4.3 20:05:52 20° SE 20:07:30 23° E 20:11:46 10° NE
SPOT 3 Rocket 3.7 20:03:45 17° SE 20:07:35 56° ENE 20:12:40 10° N
ATLAS 2AS CENTAUR R/B 3.3 19:59:49 10° SW 20:07:45 75° NW 20:15:33 10° NE
Cosmos 1825 2.1 20:05:05 10° N 20:08:53 87° W 20:11:59 15° S
ARIANE 5 R/B 4.0 20:09:19 19° E 20:10:52 23° ENE 20:14:20 10° NNE
Ariane Rocket 3.2 20:08:02 10° S 20:13:04 71° WSW 20:18:08 10° NNW
Cosmos 2322 4.4 20:10:48 10° NW 20:16:17 53° WSW 20:21:42 10° S
Cosmos 1408 3.9 20:13:31 10° NNW 20:16:50 37° W 20:20:08 10° SSW
Orbus 7S? 3.4 20:16:04 10° WSW 20:18:51 70° NW 20:23:58 10° NE
CZ-4C R/B 4.3 20:16:01 10° W 20:20:34 28° NNW 20:25:57 10° NNE
RESURS DK-1 2.5 20:17:00 10° SSW 20:21:07 77° WNW 20:25:17 10° NNE
Landsat 7 3.9 20:20:37 25° SE 20:23:15 60° ENE 20:27:57 10° N
USA 245 4.0 20:24:37 31° E 20:25:27 35° ENE 20:28:37 10° N
Cosmos-2242 4.0 20:25:50 27° E 20:26:05 28° E 20:29:45 10° NNE
Meteor 2-1 Rocket 4.4 20:21:41 10° SSW 20:27:31 84° W 20:33:28 10° N
Cosmos 2058 3.5 20:25:50 10° NNW 20:29:56 55° W 20:33:18 15° S
Cosmos 1655 Rocket 4.2 20:28:29 10° N 20:34:41 55° ENE 20:37:46 29° SE
SL-16 R/B 3.6 20:30:48 10° N 20:35:33 26° NE 20:37:53 20° E
Cosmos 614 Rocket 3.8 20:30:45 10° SSW 20:35:53 82° ESE 20:41:01 10° NNE
Cosmos 1980 3.8 20:31:29 10° NNW 20:37:10 66° ENE 20:39:45 33° SE
BREEZE-M DEB (TANK) 4.2 20:34:01 10° W 20:38:23 71° N 20:55:17 10° E
IRIDIUM 104 4.3 20:40:01 18° S 20:43:56 90° E 20:49:11 10° N
Cosmos 2151 3.1 20:40:06 10° N 20:44:22 59° E 20:45:17 47° SE
COSMOS 2428 3.6 20:40:23 10° NW 20:45:50 46° WSW 20:49:50 18° S
Cosmos 2344 3.7 20:38:35 10° SW 20:46:04 77° NW 20:54:04 10° NE
Meteor 2-3 Rocket 3.9 20:40:45 10° N 20:46:25 54° ENE 20:48:26 37° SE
FALCON 9 DEB 3.5 20:44:40 10° WSW 20:48:04 63° NNW 20:49:45 27° NE
Cosmos 1076 Rocket 3.7 20:43:50 10° NNW 20:48:10 69° W 20:50:07 31° S
ATLAS 3B R/B 3.1 20:41:59 10° NW 20:48:56 63° WSW 20:53:12 26° SSE
USA 215 3.2 20:45:38 31° ESE 20:49:07 83° NE 20:55:42 10° NW
Cosmos 1812 Rocket 3.5 20:47:57 28° S 20:50:15 89° ESE 20:54:45 10° N
Cosmos 192 4.3 20:45:37 10° NNW 20:50:37 85° WSW 20:52:27 39° SSE
Resurs 01 Rocket 2.3 20:50:18 23° SSW 20:52:50 51° W 20:57:13 10° NNW
IRIDIUM 114 4.4 20:49:08 18° S 20:53:05 76° W 20:58:20 10° N
Cosmos 1818 4.0 20:48:31 10° SW 20:53:55 64° NW 20:59:22 10° NNE
ERS-1 Rocket 3.4 20:54:40 39° E 20:55:40 44° ENE 21:00:26 10° N
Cosmos 44 4.2 20:51:07 10° SW 20:56:09 53° NW 21:01:26 10° NNE
Cosmos 407 Rocket 3.3 20:53:35 29° S 20:56:10 68° ESE 21:01:19 10° NNE
Cosmos 2219 Rocket 3.7 20:53:51 10° NW 20:58:45 30° WSW 21:02:59 13° SSW
Okean 3 Rocket 4.3 20:55:05 10° N 20:59:18 37° ENE 20:59:21 37° ENE
NOSS 0 Rocket 4.2 20:53:56 10° NNW 21:00:04 64° WSW 21:03:07 31° S
Meteor 2-21 4.4 20:56:26 10° N 21:02:31 84° W 21:05:28 33° S
Cosmos 1766 Rocket 4.2 20:59:36 10° N 21:03:29 39° ENE 21:03:29 39° ENE
Cosmos 1633 2.5 21:00:30 10° NNW 21:04:06 75° W 21:04:10 75° WSW
CARTOSAT-1 3.5 21:04:22 62° ESE 21:04:44 65° ENE 21:09:02 10° N
IGS 5A 4.4 21:04:09 28° SSW 21:05:49 42° W 21:09:48 10° NNW
Lacrosse 5 rocket 3.9 21:06:58 10° NW 21:09:58 18° N 21:13:03 10° NE
Cosmos 405 Rocket 4.4 21:07:17 10° NNW 21:10:49 30° W 21:12:30 22° SW
Cosmos 1023 Rocket 4.3 21:12:04 36° SSW 21:14:11 87° ESE 21:19:18 10° NNE
COSMOS 2455 3.6 21:18:15 33° E 21:18:15 33° E 21:22:25 10° NE
Cosmos 1869 4.4 21:18:39 35° NE 21:18:39 35° NE 21:21:14 10° NNE
SPOT 5 2.6 21:19:30 67° E 21:19:41 68° ENE 21:24:22 10° N
Cosmos 1140 Rocket 3.4 21:18:31 37° SSW 21:20:37 86° WNW 21:25:47 10° NNE
Spot 2 Rocket 3.6 21:21:42 51° SSW 21:22:55 72° WSW 21:28:01 10° NNW
Cosmos 2237 Rocket 2.5 21:20:27 10° NNW 21:25:59 58° WSW 21:27:26 44° SSW
Terra 1.9 21:28:59 60° ENE 21:28:59 60° ENE 21:33:38 10° N
Cosmos 2082 4.0 21:39:13 48° ENE 21:39:13 48° ENE 21:43:43 10° NE
Cosmos 2263 Rocket 4.3 21:42:46 12° ENE 21:42:46 12° ENE 21:43:26 10° ENE
Cosmos 2227 Rocket 2.2 21:38:45 39° SW 21:40:57 80° WNW 21:46:39 10° NNE
Meteor 2-8 Rocket 4.3 21:42:18 58° S 21:43:39 89° E 21:49:48 10° N
Cosmos 468 Rocket 4.4 21:38:53 10° NNW 21:43:44 50° ENE 21:43:44 50° ENE
ARIANE 5 R/B 3.6 21:46:52 39° WSW 21:47:06 39° W 21:51:15 10° NNW
Cosmos 2297 Rocket 2.7 21:43:48 15° SW 21:48:27 56° WNW 21:54:02 10° NNE
Cosmos 1190 Rocket 4.5 21:47:49 34° SW 21:49:53 57° WNW 21:55:03 10° NNE
Cosmos 2219 3.6 21:47:37 22° SW 21:51:11 59° WNW 21:56:46 10° NNE
H-2A R/B 4.3 21:50:37 10° NNE 21:53:41 47° N 21:53:41 47° N
Timation 2 Rocket 4.4 21:54:58 16° SW 22:00:17 63° WNW 22:06:35 10° NNE
BREEZE M DEB (TANK) 4.3 21:59:04 12° WSW 22:03:17 84° SSE 22:20:24 10° ENE
Cosmos 1763 Rocket 3.7 21:58:31 10° NNW 22:02:58 62° NNE 22:02:58 62° NNE
Nadezhda 2 Rocket 4.3 21:58:57 10° N 22:05:17 88° WSW 22:05:44 78° S
Cosmos 676 Rocket 4.2 22:07:09 66° WNW 22:07:18 66° WNW 22:12:28 10° NNE
Cosmos 1408 Rocket 4.4 22:03:02 10° N 22:06:07 46° NNW 22:06:07 46° NNW
SL-16 R/B 2.5 22:14:28 10° NNW 22:19:46 59° W 22:19:46 59° W
Meteor 2-15 Rocket 4.3 22:22:07 81° W 22:22:13 81° W 22:28:20 10° N
Cosmos 540 Rocket 4.1 22:17:56 10° NNW 22:22:04 49° NNE 22:22:04 49° NNE
NOSS 3-1 (C) 4.1 22:19:40 10° NW 22:27:08 75° NE 22:28:43 60° ESE
SL-08 ROCKET BODY 4.3 22:22:00 10° N 22:27:52 83° NNW 22:27:52 83° NNW
Cosmos 2221 4.0 22:30:07 34° N 22:30:07 34° N 22:32:40 10° N
SL-08 R/B 4.4 22:25:40 10° N 22:31:43 83° WNW 22:31:43 83° WNW
USA 215 4.3 22:32:58 31° WSW 22:32:58 31° WSW 22:38:18 10° WNW
Cosmos 44 Rocket 4.3 22:36:36 45° NNE 22:36:36 45° NNE 22:40:15 10° NNE
Aureole 1 Rocket 4.4 22:38:07 45° NE 22:38:07 45° NE 22:41:24 10° NNE
Cosmos 1553 Rocket 3.9 22:39:11 77° NW 22:39:11 77° NW 22:45:03 10° N
ALOS 2 4.4 22:49:56 28° NNE 22:49:56 28° NNE 22:52:17 10° N
Cosmos 1943 3.7 22:44:15 10° NNW 22:48:59 55° NNE 22:48:59 55° NNE
Lacrosse 5 rocket 3.4 22:46:31 10° NW 22:49:47 27° N 22:49:47 27° N
COSMOS 2455 3.7 23:01:18 38° W 23:02:47 44° NW 23:08:33 10° NNE
SeaSat 1 3.4 23:00:40 10° NNE 23:04:24 45° NNW 23:04:24 45° NNW
Terra 4.1 23:07:51 16° WNW 23:07:51 16° WNW 23:10:07 10° NW
Cosmos 2315 Rocket 4.3 23:10:31 59° NE 23:10:31 59° NE 23:15:51 10° NNE
Cosmos 2263 Rocket 2.9 23:24:26 50° N 23:24:26 50° N 23:28:38 10° NNE
USA 281 3.7 23:33:03 50° ENE 23:33:33 51° ENE 23:39:52 10° NNW
USA 229 DEB 3.9 23:26:51 10° NW 23:33:33 69° W 23:33:33 69° W
USA 229 3.9 23:26:56 10° NW 23:33:40 69° W 23:33:40 69° W
Cosmos 1844 Rocket 4.3 23:39:31 24° ENE 23:39:31 24° ENE 23:42:10 10° NE
Cosmos 2074 Rocket 4.4 23:37:54 10° N 23:43:22 55° NE 23:43:22 55° NE
